Wetbulb
29.66 29.30 28.41 27.44 26.38 25.92 26.06 25.97 27.97 29.01 29.94 30.84 31.29 32.11 33.10 34.29 34.57 34.52 34.52 34.29 34.44 34.92 35.68 36.67 37.29 38.96 39.68 40.33 43.08 48.00 48.72 51.78
28.66 27.81 27.07 26.13 25.21 25.10 25.36 25.83 27.44 28.91 29.84 30.47 31.15 32.03 32.71 33.28 34.00 35.81 34.99 34.31 34.06 34.86 35.06 35.52 36.90 39.49 39.76 40.82 41.66 44.20 47.46 49.90
26.97 26.09 25.51 24.62 24.34 24.02 24.90 25.33 27.22 28.40 29.08 29.81 30.69 30.81 30.94 31.33 32.59 33.96 34.00 34.18 34.16 35.33 35.30 36.02 37.18 38.11 39.44 38.76 40.18 42.28 44.31 44.67
25.20 24.26 24.15 23.36 23.28 23.51 24.35 24.98 26.45 27.34 27.49 28.10 28.99 29.10 28.71 29.84 31.31 32.08 32.11 33.32 34.47 35.59 34.93 34.06 34.02 34.30 36.41 37.32 38.19 40.58 43.15 42.01
24.64 27.39 24.23 22.68 22.22 22.66 23.72 24.66 25.69 26.33 26.27 26.19 26.78 27.98 28.55 29.78 30.38 30.99 31.86 31.99 33.29 34.30 34.50 34.58 34.69 34.36 34.78 35.20 36.45 38.24 37.53 37.40
25.91 27.17 25.63 22.36 22.61 21.53 22.04 23.98 25.32 24.86 24.36 23.92 25.62 27.84 28.02 28.61 29.69 31.06 31.71 32.02 32.15 32.38 32.91 33.94 34.40 35.07 35.16 36.08 35.74 34.76 33.93 34.38
26.04 27.14 24.84 22.63 20.94 19.83 20.60 22.61 24.21 22.86 22.31 23.07 24.28 25.83 26.98 27.98 28.80 29.43 30.42 31.68 32.29 32.16 32.18 32.70 33.20 37.60 38.62 36.45 34.93 34.23 33.70 32.88
20.52 26.43 24.13 21.92 19.02 17.11 19.79 23.00 22.94 22.42 22.53 23.17 23.50 24.28 25.50 26.78 27.18 28.21 28.61 29.65 30.37 31.48 31.95 32.18 34.11 37.11 36.85 35.40 33.88 33.36 33.01 32.78
18.56 24.65 16.09 15.60 15.69 15.65 17.85 19.01 24.38 24.09 22.84 23.76 24.09 24.32 25.22 25.12 25.69 26.70 28.29 28.22 28.70 29.59 30.54 31.61 32.82 34.46 33.76 32.57 31.21 30.62 30.65 31.19
13.87 12.48 9.16 12.03 12.73 12.98 15.44 16.08 21.94 24.41 23.27 23.86 24.95 23.68 23.29 23.79 24.80 26.47 27.00 27.21 27.90 28.79 29.53 29.53 30.28 33.79 32.79 30.35 28.74 27.64 27.57 28.49
10.00 6.48 6.97 11.80 9.89 13.85 14.05 14.47 19.80 23.07 24.89 24.79 24.47 24.73 23.99 24.34 25.51 26.85 27.29 26.99 27.48 27.81 28.55 29.14 29.68 32.68 31.89 29.50 27.65 26.28 26.68 28.08
6.86 11.54 11.22 8.66 12.09 14.58 14.53 16.61 17.61 18.95 21.39 25.10 24.59 24.12 24.69 25.68 26.24 26.24 26.74 26.68 26.51 25.94 26.42 28.49 29.46 30.63 31.60 30.34 26.95 25.72 24.90 24.91
22.00 15.60 11.32 8.17 17.62 16.22 17.48 15.71 16.60 19.49 21.30 21.13 21.92 24.46 24.30 24.00 24.46 24.91 25.80 25.52 25.13 24.71 24.37 24.73 27.64 30.09 31.05 30.36 28.63 27.23 23.83 23.17
19.75 20.61 17.61 16.67 21.78 22.28 17.67 18.15 17.90 16.64 15.73 18.64 21.76 23.17 23.55 22.82 22.60 22.22 22.84 23.17 22.43 22.40 21.66 21.34 22.65 24.47 29.28 28.76 28.21 27.54 23.98 24.65
19.95 20.10 20.24 19.24 20.64 19.07 18.10 18.01 11.83 11.68 15.36 17.84 19.19 20.86 22.04 22.67 22.19 22.04 20.92 20.44 20.99 20.59 19.32 19.31 19.68 20.21 21.07 22.39 22.99 24.50 22.48 22.79
20.84 21.15 20.68 19.16 17.89 14.62 16.05 13.69 13.62 11.95 14.32 15.72 16.06 16.86 19.01 20.92 21.22 21.24 19.64 21.11 18.91 15.60 15.18 14.98 16.66 20.67 23.60 21.60 19.16 18.37 18.73 12.22
20.57 20.04 19.59 17.75 16.78 14.28 11.32 11.07 10.41 13.09 13.37 11.81 12.21 11.49 13.68 14.79 17.65 28.73 28.27 28.13 28.09 27.47 22.58 19.81 26.31 27.40 27.64 27.62 26.99 25.29 22.40 7.17
22.31 22.51 18.48 17.21 16.09 13.66 10.83 9.43 9.40 10.16 10.87 9.85 11.75 10.83 10.74 10.71 11.99 15.57 21.57 27.14 28.58 28.25 28.15 27.74 27.33 27.03 26.96 27.48 27.09 25.37 17.98 2.46
21.83 20.08 18.57 16.35 16.50 14.37 9.45 8.62 9.89 9.39 11.63 12.56 12.10 10.10 7.87 8.07 7.82 14.31 9.67 7.22 8.66 18.88 24.85 27.26 27.44 27.10 26.52 26.46 21.21 17.90 7.75 -2.86
19.10 20.00 16.33 15.85 17.48 10.25 8.90 10.10 10.30 10.36 10.88 9.61 8.37 7.44 8.50 7.52 7.28 5.79 4.64 3.71 1.44 12.40 15.19 10.37 24.66 26.72 26.77 26.47 7.35 4.03 0.62 -3.04
MSLP
1014.52 1014.38 1014.38 1014.09 1013.74 1013.20 1012.55 1011.86 1011.01 1010.06 1009.07 1008.02 1007.06 1006.17 1005.23 1004.28 1003.37 1002.57 1002.25 1002.20 1002.05 1001.77 1001.60 1001.49 1001.41 1001.32 1001.13 1001.02 1000.93 1000.63 1000.32 1000.24
1014.59 1014.53 1014.43 1014.09 1013.66 1012.99 1012.30 1011.44 1010.50 1009.49 1008.52 1007.39 1006.26 1005.24 1004.39 1003.47 1002.31 1001.15 1000.90 1000.96 1000.92 1000.73 1000.66 1000.55 1000.46 1000.30 1000.37 1000.41 1000.38 1000.32 999.70 999.73
1014.64 1014.53 1014.43 1014.17 1013.62 1013.03 1012.14 1011.21 1010.36 1009.33 1008.20 1007.01 1005.89 1004.82 1003.93 1002.77 1001.63 1000.76 999.96 999.76 999.81 999.65 999.66 999.64 999.52 999.61 999.81 999.90 999.90 999.86 999.64 999.57
1014.68 1014.53 1014.55 1014.24 1013.77 1012.97 1012.01 1011.13 1010.30 1009.13 1008.06 1006.94 1005.75 1004.68 1003.67 1002.51 1001.25 1000.19 999.44 998.73 998.44 998.49 998.65 998.84 998.91 999.00 999.32 999.57 999.49 999.37 999.25 999.12
1014.36 1014.35 1014.47 1014.22 1013.78 1012.99 1012.00 1011.17 1010.25 1009.16 1008.14 1006.96 1005.89 1004.77 1003.66 1002.46 1001.15 999.89 998.81 998.14 997.75 997.61 997.62 997.80 998.03 998.22 998.63 998.96 998.95 998.79 998.66 998.77
1014.22 1014.27 1014.39 1014.20 1013.70 1013.11 1012.15 1011.09 1010.25 1009.27 1008.29 1007.31 1006.07 1004.78 1003.66 1002.50 1001.30 1000.02 998.84 998.08 997.59 997.29 997.09 997.03 997.03 997.21 997.50 997.71 997.91 998.23 998.56 999.02
1014.20 1014.31 1014.46 1014.34 1013.94 1013.33 1012.31 1011.16 1010.29 1009.43 1008.58 1007.50 1006.31 1005.19 1004.04 1002.86 1001.65 1000.43 999.53 998.72 998.03 997.54 997.13 996.72 996.51 996.47 996.47 996.76 997.55 998.08 998.47 999.28
1014.34 1014.37 1014.49 1014.37 1014.21 1013.67 1012.66 1011.43 1010.37 1009.64 1008.81 1007.81 1006.77 1005.75 1004.66 1003.67 1002.52 1001.33 1000.46 999.80 999.13 998.52 998.00 997.53 997.11 996.87 997.27 997.70 998.09 998.72 999.29 999.85
1014.41 1014.53 1014.58 1014.30 1014.13 1013.75 1012.81 1011.76 1010.55 1009.67 1009.13 1008.26 1007.27 1006.36 1005.41 1004.40 1003.47 1002.55 1001.62 1000.92 1000.43 999.93 999.58 999.15 998.83 998.34 998.60 998.88 999.22 999.68 1000.46 1001.14
1014.31 1014.67 1014.64 1014.36 1014.05 1013.77 1013.03 1012.14 1010.92 1009.87 1009.37 1008.78 1007.91 1007.12 1006.19 1005.38 1004.58 1003.85 1002.97 1002.05 1001.80 1001.47 1000.96 1000.63 1000.34 999.87 999.57 999.99 1000.98 1001.13 1001.88 1002.40
1014.31 1014.48 1014.56 1014.03 1013.87 1013.70 1013.29 1012.54 1011.51 1010.60 1009.85 1009.27 1008.51 1007.70 1006.96 1006.25 1005.54 1004.98 1004.35 1003.73 1003.37 1002.69 1002.45 1002.11 1001.59 1001.58 1001.34 1001.56 1002.08 1002.83 1004.12 1004.55
1014.02 1014.01 1013.87 1013.67 1013.66 1013.56 1013.22 1012.62 1011.89 1011.11 1010.42 1009.68 1009.01 1008.25 1007.64 1007.09 1006.45 1005.89 1005.34 1004.91 1004.62 1004.41 1004.21 1003.71 1003.72 1003.63 1003.41 1003.35 1004.43 1004.92 1005.25 1006.00
1013.28 1013.21 1013.08 1013.25 1013.33 1013.23 1012.93 1012.47 1012.02 1011.44 1010.79 1010.23 1009.69 1008.97 1008.35 1007.80 1007.31 1006.85 1006.40 1006.14 1006.10 1006.02 1006.25 1006.25 1005.87 1005.62 1005.96 1006.16 1006.50 1006.74 1006.39 1006.65
1012.26 1012.45 1012.48 1012.66 1012.80 1012.85 1012.58 1012.43 1012.21 1011.72 1011.25 1010.71 1010.27 1009.78 1009.26 1008.85 1008.43 1008.07 1007.82 1007.67 1007.64 1007.59 1007.81 1007.95 1007.93 1007.72 1007.49 1007.77 1007.95 1007.82 1007.92 1008.26
1011.52 1011.84 1011.90 1012.04 1012.27 1012.44 1012.46 1012.45 1012.35 1012.11 1011.83 1011.34 1010.97 1010.64 1010.21 1009.94 1009.66 1009.38 1009.24 1008.98 1008.84 1008.94 1009.08 1009.14 1009.02 1008.85 1008.84 1008.99 1009.33 1009.66 1009.88 1010.41
1010.67 1010.94 1011.08 1011.34 1011.64 1011.98 1012.31 1012.48 1012.61 1012.54 1012.32 1012.02 1011.75 1011.51 1011.10 1010.70 1010.38 1010.18 1010.32 1010.20 1010.25 1010.36 1010.36 1010.48 1010.33 1010.31 1010.31 1010.42 1010.81 1011.23 1011.57 1011.64
1009.55 1010.16 1010.27 1010.71 1011.04 1011.48 1011.93 1012.30 1012.51 1012.73 1012.61 1012.50 1012.29 1011.94 1011.56 1011.21 1010.84 1010.30 1010.32 1010.37 1010.27 1010.24 1010.29 1010.20 1010.06 1010.19 1010.32 1010.65 1011.00 1011.32 1011.72 1012.78
1008.41 1008.80 1009.62 1010.24 1010.69 1010.98 1011.47 1011.86 1012.04 1012.30 1012.33 1012.37 1012.40 1012.44 1012.39 1012.26 1012.26 1011.84 1011.52 1011.19 1010.91 1010.90 1010.93 1010.94 1010.85 1010.95 1011.04 1011.19 1011.60 1012.43 1013.19 1014.58
1007.47 1008.04 1008.67 1009.53 1010.03 1010.31 1011.08 1011.65 1011.59 1011.59 1011.42 1011.41 1011.56 1011.99 1012.38 1012.61 1012.85 1012.96 1012.86 1012.62 1012.50 1012.17 1011.82 1011.62 1011.58 1011.77 1012.05 1012.25 1012.84 1013.44 1014.25 1014.80
1006.72 1007.22 1008.10 1008.72 1008.93 1009.68 1010.57 1011.28 1011.42 1011.62 1011.76 1011.77 1011.91 1011.99 1012.05 1012.20 1012.28 1012.43 1012.76 1013.14 1013.25 1012.97 1012.55 1012.53 1012.32 1012.12 1012.22 1012.54 1013.44 1014.12 1014.83 1015.29
Wind_Speed
7 8 10 13 13 13 13 14 16 17 15 14 15 16 15 15 18 18 15 15 15 16 15 15 15 15 12 9 10 11 11 10
7 7 11 11 12 13 13 14 15 15 15 15 15 15 15 15 15 14 14 14 14 15 14 14 15 13 13 13 10 14 11 10
7 7 10 11 12 13 13 13 15 15 15 15 15 14 14 15 14 13 14 13 14 14 13 13 11 10 10 10 9 13 10 11
5 5 8 11 12 12 13 13 15 15 16 15 14 14 14 14 13 12 11 12 13 13 12 12 12 11 9 9 11 12 12 10
4 9 9 10 11 12 13 12 14 16 15 14 14 14 13 13 12 11 8 8 9 11 12 12 12 10 11 12 11 12 8 8
6 8 12 10 11 11 11 12 14 14 14 13 13 12 12 11 11 10 8 6 4 3 6 10 9 9 12 12 11 10 9 9
5 7 10 10 10 12 11 11 12 13 13 13 12 12 12 12 11 11 11 10 7 6 4 3 1 9 14 12 9 11 13 12
4 5 7 9 8 11 12 11 10 11 12 12 12 11 12 12 12 13 13 12 13 12 10 10 9 18 16 14 10 11 12 13
3 5 5 4 7 8 9 9 9 10 11 12 12 11 12 12 13 13 12 15 14 14 13 12 12 24 24 22 14 14 14 13
4 4 4 5 6 6 7 7 8 10 11 11 10 10 11 13 13 11 12 14 14 14 15 14 14 23 26 20 12 16 15 14
4 2 2 5 4 5 6 6 7 9 9 10 9 9 10 11 12 11 9 12 11 15 15 17 17 27 26 20 11 15 11 13
3 4 4 4 3 5 5 5 6 6 7 8 9 7 9 9 10 10 11 12 14 16 16 17 17 21 27 24 11 9 10 10
5 5 4 3 2 4 5 5 5 5 5 6 7 7 7 9 9 10 11 13 13 13 12 11 13 23 25 24 21 16 12 12
6 5 3 4 3 5 4 4 5 4 5 5 6 7 8 9 9 7 9 8 8 9 9 9 8 8 23 22 23 21 14 10
6 6 6 5 4 5 4 3 3 4 5 5 5 5 6 5 5 6 6 6 6 6 6 5 6 7 7 7 7 15 13 14
9 8 8 6 6 4 3 1 1 2 3 4 3 4 4 3 3 3 2 3 4 2 2 4 5 4 8 8 6 6 9 8
10 8 8 7 7 5 5 4 3 1 1 2 2 2 2 2 3 11 11 11 11 10 6 0 10 12 13 13 15 14 10 6
14 13 7 7 7 6 6 6 6 5 4 2 1 1 1 3 3 3 5 11 11 10 9 9 9 9 8 9 10 9 5 3
10 9 10 9 10 7 6 6 6 5 7 5 5 4 2 1 1 2 2 2 4 8 8 6 4 5 5 5 7 3 6 3
8 9 9 9 11 7 7 7 6 4 3 2 1 1 2 2 2 3 2 1 1 2 4 6 6 2 3 7 3 3 1 1
Wind_Direction
317 326 324 313 310 309 308 309 308 310 303 296 292 287 282 275 271 259 252 246 249 246 241 237 240 249 248 248 255 233 228 221
310 313 312 307 315 313 315 316 313 312 307 302 300 298 293 286 289 259 250 241 242 241 242 242 245 236 232 232 232 247 218 211
304 312 311 316 317 316 316 319 317 315 308 308 306 307 299 295 289 284 253 236 235 237 231 237 241 243 249 237 235 241 236 189
289 304 316 318 317 318 319 322 318 315 320 313 315 315 309 305 303 295 274 250 233 226 224 230 235 223 232 254 234 241 244 189
327 335 322 317 317 318 319 326 321 326 322 320 324 324 321 315 315 313 304 272 242 228 222 220 222 218 224 228 234 231 198 162
334 331 327 322 326 320 317 328 329 325 324 323 327 328 330 333 330 330 335 337 324 279 235 228 222 221 219 213 181 154 126 118
314 323 324 321 324 319 317 327 332 330 325 328 334 340 341 339 347 2 4 6 13 24 25 26 132 198 179 149 140 129 122 113
276 317 316 316 318 314 314 316 327 332 332 336 339 344 349 354 0 13 19 21 24 30 37 50 62 84 91 102 100 105 106 114
260 306 284 294 313 311 313 316 329 341 343 342 347 350 358 6 13 12 27 34 32 32 36 51 67 85 88 83 85 85 84 82
210 225 282 299 304 312 322 321 331 351 351 343 348 355 4 14 13 16 29 39 39 37 39 45 49 60 72 74 73 77 72 76
224 230 295 290 314 320 323 322 353 341 346 342 342 4 10 17 16 21 29 43 42 46 44 48 51 54 66 71 63 73 76 75
201 229 239 285 307 323 315 343 317 320 324 353 346 1 12 20 21 21 36 43 47 47 35 42 49 54 60 65 69 74 76 77
216 235 246 251 281 301 315 305 315 333 350 351 349 5 6 21 27 31 38 47 45 48 48 39 40 59 63 69 74 82 81 74
201 218 231 222 237 277 273 323 335 3 6 4 1 20 20 27 26 35 36 43 45 48 52 45 32 48 75 79 80 76 78 83
181 209 228 200 218 240 284 326 4 15 8 6 24 14 27 38 35 44 38 41 40 53 59 55 49 45 33 43 55 65 74 85
192 208 216 194 214 217 242 125 11 18 355 18 21 14 11 22 65 69 112 95 95 43 45 56 45 52 89 91 77 74 87 71
197 209 208 197 210 204 198 175 171 239 344 351 354 349 13 47 26 64 75 74 69 84 104 273 85 85 97 104 107 104 88 50
199 209 180 197 213 208 190 173 178 193 204 223 215 282 346 4 25 36 5 39 53 65 80 86 84 73 84 100 106 91 74 105
191 193 185 189 215 201 174 187 198 210 203 190 189 179 166 130 51 23 21 4 339 12 27 32 71 84 99 112 61 54 23 66
184 198 183 198 222 167 170 193 206 207 228 204 211 206 179 160 158 154 136 110 351 340 3 14 19 9 181 148 120 151 195 162